{"data":{"norad_id":56717,"epoch":"2026-09-19T15:20:15.492480Z","epoch_age_seconds":92703,"freshness":"FRESH","line1":"1 56717U 23068H   26262.63906820  .00000041  00000+0  68330-4 0  9995","line2":"2 56717  87.9285 225.1838 0002968  85.2999 274.8474 13.21301129163563","mean_motion":13.21301129,"eccentricity":0.0002968,"inclination_deg":87.9285,"raan_deg":225.1838,"arg_perigee_deg":85.2999,"mean_anomaly_deg":274.8474,"bstar":6.833e-5,"rev_number":16356,"period_min":108.98348365825,"perigee_km":1177.511044914,"apogee_km":1181.9974091464,"semimajor_km":7557.8912270302,"source":"CELESTRAK","updated_at":"2026-09-20T09:00:44.795761Z"}}